owner,sensor,date,latitude,longitude,vertical_datum,sea_water_practical_salinity,qcFlag 
SCCF RECON,ioos:station:SCCF:53:1,2010-10-01T00:00:00Z,26.6493,-81.8810,2.08,9.6,1111122 
SCCF RECON,ioos:station:SCCF:53:1,2010-10-01T01:00:00Z,26.6493,-81.8810,2.13,10.4,1111122 
SCCF RECON,ioos:station:SCCF:53:1,2010-10-01T02:00:00Z,26.6493,-81.8810,2.17,10.45,1111122 
SCCF RECON,ioos:station:SCCF:53:1,2010-10-01T03:00:00Z,26.6493,-81.8810,2.19,10.09,1111122 
SCCF RECON,ioos:station:SCCF:53:1,2010-10-01T04:00:00Z,26.6493,-81.8810,2.19,10.12,1111122 
SCCF RECON,ioos:station:SCCF:53:1,2010-10-01T05:00:00Z,26.6493,-81.8810,2.17,9.67,1111122 
SCCF RECON,ioos:station:SCCF:53:1,2010-10-01T06:00:00Z,26.6493,-81.8810,2.14,10.03,1111122 
SCCF RECON,ioos:station:SCCF:53:1,2010-10-01T07:00:00Z,26.6493,-81.8810,2.12,9.96,1111122 
SCCF RECON,ioos:station:SCCF:53:1,2010-10-01T08:00:00Z,26.6493,-81.8810,2.11,10.17,1111122 
SCCF RECON,ioos:station:SCCF:53:1,2010-10-01T09:00:00Z,26.6493,-81.8810,2.15,9.88,1111122 
SCCF RECON,ioos:station:SCCF:53:1,2010-10-01T10:00:00Z,26.6493,-81.8810,2.21,9.5,1111122 
SCCF RECON,ioos:station:SCCF:53:1,2010-10-01T11:00:00Z,26.6493,-81.8810,2.26,9.12,1111122 
SCCF RECON,ioos:station:SCCF:53:1,2010-10-01T12:00:00Z,26.6493,-81.8810,2.309,8.95,1111122 
SCCF RECON,ioos:station:SCCF:53:1,2010-10-01T13:00:00Z,26.6493,-81.8810,2.34,10.14,1111122 
SCCF RECON,ioos:station:SCCF:53:1,2010-10-01T14:00:00Z,26.6493,-81.8810,2.328,9.96,1111122 
SCCF RECON,ioos:station:SCCF:53:1,2010-10-01T15:00:00Z,26.6493,-81.8810,2.269,8.58,1111122 
SCCF RECON,ioos:station:SCCF:53:1,2010-10-01T16:00:00Z,26.6493,-81.8810,2.21,8.52,1111122 
SCCF RECON,ioos:station:SCCF:53:1,2010-10-01T17:00:00Z,26.6493,-81.8810,2.15,9.06,1111122 
SCCF RECON,ioos:station:SCCF:53:1,2010-10-01T18:00:00Z,26.6493,-81.8810,2.09,9.16,1111122 
SCCF RECON,ioos:station:SCCF:53:1,2010-10-01T19:00:00Z,26.6493,-81.8810,2.029,9.02,1111122 
SCCF RECON,ioos:station:SCCF:53:1,2010-10-01T20:00:00Z,26.6493,-81.8810,1.97,8.9,1111122 
SCCF RECON,ioos:station:SCCF:53:1,2010-10-01T21:00:00Z,26.6493,-81.8810,1.929,7.97,1111122 
SCCF RECON,ioos:station:SCCF:53:1,2010-10-01T22:00:00Z,26.6493,-81.8810,1.902,7.21,1111122 
SCCF RECON,ioos:station:SCCF:53:1,2010-10-01T23:00:00Z,26.6493,-81.8810,1.922,6.62,1111122 
SCCF RECON,ioos:station:SCCF:53:1,2010-10-02T00:00:00Z,26.6493,-81.8810,1.97,6.8,1111122 
SCCF RECON,ioos:station:SCCF:53:1,2010-10-02T01:00:00Z,26.6493,-81.8810,2.028,8.8,1111122 
SCCF RECON,ioos:station:SCCF:53:1,2010-10-02T02:00:00Z,26.6493,-81.8810,2.08,7.23,1111122 
SCCF RECON,ioos:station:SCCF:53:1,2010-10-02T03:00:00Z,26.6493,-81.8810,2.12,8.19,1111122 
SCCF RECON,ioos:station:SCCF:53:1,2010-10-02T04:00:00Z,26.6493,-81.8810,2.15,8.5,1111122 
SCCF RECON,ioos:station:SCCF:53:1,2010-10-02T05:00:00Z,26.6493,-81.8810,2.154,8.67,1111122 
SCCF RECON,ioos:station:SCCF:53:1,2010-10-02T06:00:00Z,26.6493,-81.8810,2.14,8.59,1111122 
SCCF RECON,ioos:station:SCCF:53:1,2010-10-02T07:00:00Z,26.6493,-81.8810,2.117,8.22,1111122 
SCCF RECON,ioos:station:SCCF:53:1,2010-10-02T08:00:00Z,26.6493,-81.8810,2.09,8.29,1111122 
SCCF RECON,ioos:station:SCCF:53:1,2010-10-02T09:00:00Z,26.6493,-81.8810,2.08,8.47,1111122 
SCCF RECON,ioos:station:SCCF:53:1,2010-10-02T10:00:00Z,26.6493,-81.8810,2.1,8.58,1111122 
SCCF RECON,ioos:station:SCCF:53:1,2010-10-02T11:00:00Z,26.6493,-81.8810,2.16,8.54,1111122 
SCCF RECON,ioos:station:SCCF:53:1,2010-10-02T12:00:00Z,26.6493,-81.8810,2.22,8.39,1111122 
SCCF RECON,ioos:station:SCCF:53:1,2010-10-02T13:00:00Z,26.6493,-81.8810,2.28,8.41,1111122 
SCCF RECON,ioos:station:SCCF:53:1,2010-10-02T14:00:00Z,26.6493,-81.8810,2.327,8.46,1111122 
SCCF RECON,ioos:station:SCCF:53:1,2010-10-02T15:00:00Z,26.6493,-81.8810,2.35,8.55,1111122 
SCCF RECON,ioos:station:SCCF:53:1,2010-10-02T16:00:00Z,26.6493,-81.8810,2.321,9.09,1111122 
SCCF RECON,ioos:station:SCCF:53:1,2010-10-02T17:00:00Z,26.6493,-81.8810,2.253,8.17,1111122 
SCCF RECON,ioos:station:SCCF:53:1,2010-10-02T18:00:00Z,26.6493,-81.8810,2.19,7.8,1111122 
SCCF RECON,ioos:station:SCCF:53:1,2010-10-02T19:00:00Z,26.6493,-81.8810,2.128,8.03,1111122 
SCCF RECON,ioos:station:SCCF:53:1,2010-10-02T20:00:00Z,26.6493,-81.8810,2.063,8.04,1111122 
SCCF RECON,ioos:station:SCCF:53:1,2010-10-02T21:00:00Z,26.6493,-81.8810,2.013,7.73,1111122 
SCCF RECON,ioos:station:SCCF:53:1,2010-10-02T22:00:00Z,26.6493,-81.8810,1.97,7.43,1111122 
SCCF RECON,ioos:station:SCCF:53:1,2010-10-02T23:00:00Z,26.6493,-81.8810,1.941,7.57,1111122 
SCCF RECON,ioos:station:SCCF:53:1,2010-10-03T00:00:00Z,26.6493,-81.8810,1.963,7.6,1111122 
SCCF RECON,ioos:station:SCCF:53:1,2010-10-03T01:00:00Z,26.6493,-81.8810,2.01,8.05,1111122 
SCCF RECON,ioos:station:SCCF:53:1,2010-10-03T02:00:00Z,26.6493,-81.8810,2.06,8.43,1111122 
SCCF RECON,ioos:station:SCCF:53:1,2010-10-03T03:00:00Z,26.6493,-81.8810,2.12,8.36,1111122 
SCCF RECON,ioos:station:SCCF:53:1,2010-10-03T04:00:00Z,26.6493,-81.8810,2.166,8.36,1111122 
SCCF RECON,ioos:station:SCCF:53:1,2010-10-03T05:00:00Z,26.6493,-81.8810,2.19,8.13,1111122 
SCCF RECON,ioos:station:SCCF:53:1,2010-10-03T06:00:00Z,26.6493,-81.8810,2.19,8.42,1111122 
SCCF RECON,ioos:station:SCCF:53:1,2010-10-03T07:00:00Z,26.6493,-81.8810,2.158,7.94,1111122 
SCCF RECON,ioos:station:SCCF:53:1,2010-10-03T08:00:00Z,26.6493,-81.8810,2.101,7.69,1111122 
SCCF RECON,ioos:station:SCCF:53:1,2010-10-03T09:00:00Z,26.6493,-81.8810,2.06,7.61,1111122 
SCCF RECON,ioos:station:SCCF:53:1,2010-10-03T10:00:00Z,26.6493,-81.8810,2.03,7.99,1111122 
SCCF RECON,ioos:station:SCCF:53:1,2010-10-03T11:00:00Z,26.6493,-81.8810,2.03,8.05,1111122 
SCCF RECON,ioos:station:SCCF:53:1,2010-10-03T12:00:00Z,26.6493,-81.8810,2.09,7.93,1111122 
SCCF RECON,ioos:station:SCCF:53:1,2010-10-03T13:00:00Z,26.6493,-81.8810,2.159,7.78,1111122 
SCCF RECON,ioos:station:SCCF:53:1,2010-10-03T14:00:00Z,26.6493,-81.8810,2.211,7.19,1111122 
SCCF RECON,ioos:station:SCCF:53:1,2010-10-03T15:00:00Z,26.6493,-81.8810,2.27,7.67,1111122 
SCCF RECON,ioos:station:SCCF:53:1,2010-10-03T16:00:00Z,26.6493,-81.8810,2.311,7.04,1111122 
SCCF RECON,ioos:station:SCCF:53:1,2010-10-03T17:00:00Z,26.6493,-81.8810,2.312,7.2,1111122 
SCCF RECON,ioos:station:SCCF:53:1,2010-10-03T18:00:00Z,26.6493,-81.8810,2.255,8.1,1111122 
SCCF RECON,ioos:station:SCCF:53:1,2010-10-03T19:00:00Z,26.6493,-81.8810,2.189,6.72,1111122 
SCCF RECON,ioos:station:SCCF:53:1,2010-10-03T20:00:00Z,26.6493,-81.8810,2.125,7.48,1111122 
SCCF RECON,ioos:station:SCCF:53:1,2010-10-03T21:00:00Z,26.6493,-81.8810,2.06,6.84,1111122 
SCCF RECON,ioos:station:SCCF:53:1,2010-10-03T22:00:00Z,26.6493,-81.8810,2.011,7.54,1111122 
SCCF RECON,ioos:station:SCCF:53:1,2010-10-03T23:00:00Z,26.6493,-81.8810,1.97,7.37,1111122 
SCCF RECON,ioos:station:SCCF:53:1,2010-10-04T00:00:00Z,26.6493,-81.8810,1.94,7.19,1111122 
SCCF RECON,ioos:station:SCCF:53:1,2010-10-04T01:00:00Z,26.6493,-81.8810,1.96,7.53,1111122 
SCCF RECON,ioos:station:SCCF:53:1,2010-10-04T02:00:00Z,26.6493,-81.8810,2.016,7.83,1111122 
SCCF RECON,ioos:station:SCCF:53:1,2010-10-04T03:00:00Z,26.6493,-81.8810,2.07,7.18,1111122 
SCCF RECON,ioos:station:SCCF:53:1,2010-10-04T04:00:00Z,26.6493,-81.8810,2.12,6.98,1111122 
SCCF RECON,ioos:station:SCCF:53:1,2010-10-04T05:00:00Z,26.6493,-81.8810,2.16,7.15,1111122 
SCCF RECON,ioos:station:SCCF:53:1,2010-10-04T06:00:00Z,26.6493,-81.8810,2.18,6.75,1111122 
SCCF RECON,ioos:station:SCCF:53:1,2010-10-04T07:00:00Z,26.6493,-81.8810,2.15,7.41,1111122 
SCCF RECON,ioos:station:SCCF:53:1,2010-10-04T08:00:00Z,26.6493,-81.8810,2.1,6.49,1111122 
SCCF RECON,ioos:station:SCCF:53:1,2010-10-04T09:00:00Z,26.6493,-81.8810,2.05,6.93,1111122 
SCCF RECON,ioos:station:SCCF:53:1,2010-10-04T10:00:00Z,26.6493,-81.8810,2.0,6.97,1111122 
SCCF RECON,ioos:station:SCCF:53:1,2010-10-04T11:00:00Z,26.6493,-81.8810,1.97,7.06,1111122 
SCCF RECON,ioos:station:SCCF:53:1,2010-10-04T12:00:00Z,26.6493,-81.8810,1.96,7.04,1111122 
SCCF RECON,ioos:station:SCCF:53:1,2010-10-04T13:00:00Z,26.6493,-81.8810,2.011,7.08,1111122 
SCCF RECON,ioos:station:SCCF:53:1,2010-10-04T14:00:00Z,26.6493,-81.8810,2.07,6.22,1111122 
SCCF RECON,ioos:station:SCCF:53:1,2010-10-04T15:00:00Z,26.6493,-81.8810,2.12,5.89,1111122 
SCCF RECON,ioos:station:SCCF:53:1,2010-10-04T16:00:00Z,26.6493,-81.8810,2.181,6.17,1111122 
SCCF RECON,ioos:station:SCCF:53:1,2010-10-04T17:00:00Z,26.6493,-81.8810,2.232,5.95,1111122 
SCCF RECON,ioos:station:SCCF:53:1,2010-10-04T18:00:00Z,26.6493,-81.8810,2.249,6.24,1111122 
SCCF RECON,ioos:station:SCCF:53:1,2010-10-04T19:00:00Z,26.6493,-81.8810,2.21,6.46,1111122 
SCCF RECON,ioos:station:SCCF:53:1,2010-10-04T20:00:00Z,26.6493,-81.8810,2.141,5.17,1111122 
SCCF RECON,ioos:station:SCCF:53:1,2010-10-04T21:00:00Z,26.6493,-81.8810,2.09,5.46,1111122 
SCCF RECON,ioos:station:SCCF:53:1,2010-10-04T22:00:00Z,26.6493,-81.8810,2.03,5.38,1111122 
SCCF RECON,ioos:station:SCCF:53:1,2010-10-04T23:00:00Z,26.6493,-81.8810,1.985,4.3,1111122 
SCCF RECON,ioos:station:SCCF:53:1,2010-10-05T00:00:00Z,26.6493,-81.8810,1.95,4.12,1111122 
SCCF RECON,ioos:station:SCCF:53:1,2010-10-05T01:00:00Z,26.6493,-81.8810,1.93,3.82,1111122 
SCCF RECON,ioos:station:SCCF:53:1,2010-10-05T02:00:00Z,26.6493,-81.8810,1.97,5.12,1111122 
SCCF RECON,ioos:station:SCCF:53:1,2010-10-05T03:00:00Z,26.6493,-81.8810,2.02,4.28,1111122 
SCCF RECON,ioos:station:SCCF:53:1,2010-10-05T04:00:00Z,26.6493,-81.8810,2.06,4.2,1111122 
SCCF RECON,ioos:station:SCCF:53:1,2010-10-05T05:00:00Z,26.6493,-81.8810,2.12,4.46,1111122 
SCCF RECON,ioos:station:SCCF:53:1,2010-10-05T06:00:00Z,26.6493,-81.8810,2.16,5.65,1111122 
SCCF RECON,ioos:station:SCCF:53:1,2010-10-05T07:00:00Z,26.6493,-81.8810,2.18,5.54,1111122 
SCCF RECON,ioos:station:SCCF:53:1,2010-10-05T08:00:00Z,26.6493,-81.8810,2.14,5.23,1111122 
SCCF RECON,ioos:station:SCCF:53:1,2010-10-05T09:00:00Z,26.6493,-81.8810,2.08,4.72,1111122 
SCCF RECON,ioos:station:SCCF:53:1,2010-10-05T10:00:00Z,26.6493,-81.8810,2.032,4.59,1111122 
SCCF RECON,ioos:station:SCCF:53:1,2010-10-05T11:00:00Z,26.6493,-81.8810,1.99,4.57,1111122 
SCCF RECON,ioos:station:SCCF:53:1,2010-10-05T12:00:00Z,26.6493,-81.8810,1.95,3.82,1111122 
SCCF RECON,ioos:station:SCCF:53:1,2010-10-05T13:00:00Z,26.6493,-81.8810,1.94,3.56,1111122 
SCCF RECON,ioos:station:SCCF:53:1,2010-10-05T14:00:00Z,26.6493,-81.8810,1.986,3.97,1111122 
SCCF RECON,ioos:station:SCCF:53:1,2010-10-05T15:00:00Z,26.6493,-81.8810,2.035,4.32,1111122 
SCCF RECON,ioos:station:SCCF:53:1,2010-10-05T16:00:00Z,26.6493,-81.8810,2.084,4.5,1111122 
SCCF RECON,ioos:station:SCCF:53:1,2010-10-05T17:00:00Z,26.6493,-81.8810,2.15,5.09,1111122 
SCCF RECON,ioos:station:SCCF:53:1,2010-10-05T18:00:00Z,26.6493,-81.8810,2.193,5.35,1111122 
SCCF RECON,ioos:station:SCCF:53:1,2010-10-05T19:00:00Z,26.6493,-81.8810,2.21,5.67,1111122 
SCCF RECON,ioos:station:SCCF:53:1,2010-10-05T20:00:00Z,26.6493,-81.8810,2.161,5.83,1111122 
SCCF RECON,ioos:station:SCCF:53:1,2010-10-05T21:00:00Z,26.6493,-81.8810,2.1,5.13,1111122 
SCCF RECON,ioos:station:SCCF:53:1,2010-10-05T22:00:00Z,26.6493,-81.8810,2.05,4.65,1111122 
SCCF RECON,ioos:station:SCCF:53:1,2010-10-05T23:00:00Z,26.6493,-81.8810,2.0,4.3,1111122 
SCCF RECON,ioos:station:SCCF:53:1,2010-10-06T00:00:00Z,26.6493,-81.8810,1.96,4.0,1111122 
SCCF RECON,ioos:station:SCCF:53:1,2010-10-06T01:00:00Z,26.6493,-81.8810,1.931,3.73,1111122 
SCCF RECON,ioos:station:SCCF:53:1,2010-10-06T02:00:00Z,26.6493,-81.8810,1.947,3.87,1111122 
SCCF RECON,ioos:station:SCCF:53:1,2010-10-06T03:00:00Z,26.6493,-81.8810,1.998,3.87,1111122 
SCCF RECON,ioos:station:SCCF:53:1,2010-10-06T04:00:00Z,26.6493,-81.8810,2.041,4.38,1111122 
SCCF RECON,ioos:station:SCCF:53:1,2010-10-06T05:00:00Z,26.6493,-81.8810,2.092,4.99,1111122 
SCCF RECON,ioos:station:SCCF:53:1,2010-10-06T06:00:00Z,26.6493,-81.8810,2.148,5.4,1111122 
SCCF RECON,ioos:station:SCCF:53:1,2010-10-06T07:00:00Z,26.6493,-81.8810,2.169,5.57,1111122 
SCCF RECON,ioos:station:SCCF:53:1,2010-10-06T08:00:00Z,26.6493,-81.8810,2.121,5.27,1111122 
SCCF RECON,ioos:station:SCCF:53:1,2010-10-06T09:00:00Z,26.6493,-81.8810,2.065,4.92,1111122 
SCCF RECON,ioos:station:SCCF:53:1,2010-10-06T10:00:00Z,26.6493,-81.8810,2.013,3.98,1111122 
SCCF RECON,ioos:station:SCCF:53:1,2010-10-06T11:00:00Z,26.6493,-81.8810,1.96,3.74,1111122 
SCCF RECON,ioos:station:SCCF:53:1,2010-10-06T12:00:00Z,26.6493,-81.8810,1.918,3.5,1111122 
SCCF RECON,ioos:station:SCCF:53:1,2010-10-06T13:00:00Z,26.6493,-81.8810,1.873,3.33,1111122 
SCCF RECON,ioos:station:SCCF:53:1,2010-10-06T14:00:00Z,26.6493,-81.8810,1.84,3.15,1111122 
SCCF RECON,ioos:station:SCCF:53:1,2010-10-06T15:00:00Z,26.6493,-81.8810,1.852,3.16,1111122 
SCCF RECON,ioos:station:SCCF:53:1,2010-10-06T16:00:00Z,26.6493,-81.8810,1.907,3.36,1111122 
SCCF RECON,ioos:station:SCCF:53:1,2010-10-06T17:00:00Z,26.6493,-81.8810,1.954,3.97,1111122 
SCCF RECON,ioos:station:SCCF:53:1,2010-10-06T18:00:00Z,26.6493,-81.8810,2.0,4.5,1111122 
SCCF RECON,ioos:station:SCCF:53:1,2010-10-06T19:00:00Z,26.6493,-81.8810,2.05,5.07,1111122 
SCCF RECON,ioos:station:SCCF:53:1,2010-10-06T20:00:00Z,26.6493,-81.8810,2.082,6.01,1111122 
SCCF RECON,ioos:station:SCCF:53:1,2010-10-06T21:00:00Z,26.6493,-81.8810,2.066,5.94,1111122 
SCCF RECON,ioos:station:SCCF:53:1,2010-10-06T22:00:00Z,26.6493,-81.8810,2.017,5.02,1111122 
SCCF RECON,ioos:station:SCCF:53:1,2010-10-06T23:00:00Z,26.6493,-81.8810,1.97,5.36,1111122 
SCCF RECON,ioos:station:SCCF:53:1,2010-10-07T00:00:00Z,26.6493,-81.8810,1.94,4.28,1111122 
SCCF RECON,ioos:station:SCCF:53:1,2010-10-07T01:00:00Z,26.6493,-81.8810,1.906,3.97,1111122 
SCCF RECON,ioos:station:SCCF:53:1,2010-10-07T02:00:00Z,26.6493,-81.8810,1.91,4.17,1111122 
SCCF RECON,ioos:station:SCCF:53:1,2010-10-07T03:00:00Z,26.6493,-81.8810,1.976,4.02,1111122 
SCCF RECON,ioos:station:SCCF:53:1,2010-10-07T04:00:00Z,26.6493,-81.8810,2.032,4.78,1111122 
SCCF RECON,ioos:station:SCCF:53:1,2010-10-07T05:00:00Z,26.6493,-81.8810,2.085,5.31,1111122 
SCCF RECON,ioos:station:SCCF:53:1,2010-10-07T06:00:00Z,26.6493,-81.8810,2.153,6.25,1111122 
SCCF RECON,ioos:station:SCCF:53:1,2010-10-07T07:00:00Z,26.6493,-81.8810,2.2,6.4,1111122 
SCCF RECON,ioos:station:SCCF:53:1,2010-10-07T08:00:00Z,26.6493,-81.8810,2.21,6.49,1111122 
SCCF RECON,ioos:station:SCCF:53:1,2010-10-07T09:00:00Z,26.6493,-81.8810,2.159,5.99,1111122 
SCCF RECON,ioos:station:SCCF:53:1,2010-10-07T10:00:00Z,26.6493,-81.8810,2.1,5.38,1111122 
SCCF RECON,ioos:station:SCCF:53:1,2010-10-07T11:00:00Z,26.6493,-81.8810,2.05,4.99,1111122 
SCCF RECON,ioos:station:SCCF:53:1,2010-10-07T12:00:00Z,26.6493,-81.8810,2.0,5.25,1111122 
SCCF RECON,ioos:station:SCCF:53:1,2010-10-07T13:00:00Z,26.6493,-81.8810,1.951,4.46,1111122 
SCCF RECON,ioos:station:SCCF:53:1,2010-10-07T14:00:00Z,26.6493,-81.8810,1.91,4.07,1111122 
SCCF RECON,ioos:station:SCCF:53:1,2010-10-07T15:00:00Z,26.6493,-81.8810,1.89,5.21,1111122 
SCCF RECON,ioos:station:SCCF:53:1,2010-10-07T16:00:00Z,26.6493,-81.8810,1.948,4.16,1111122 
SCCF RECON,ioos:station:SCCF:53:1,2010-10-07T17:00:00Z,26.6493,-81.8810,2.0,4.25,1111122 
SCCF RECON,ioos:station:SCCF:53:1,2010-10-07T18:00:00Z,26.6493,-81.8810,2.056,5.67,1111122 
SCCF RECON,ioos:station:SCCF:53:1,2010-10-07T19:00:00Z,26.6493,-81.8810,2.121,6.34,1111122 
SCCF RECON,ioos:station:SCCF:53:1,2010-10-07T20:00:00Z,26.6493,-81.8810,2.188,6.73,1111122 
SCCF RECON,ioos:station:SCCF:53:1,2010-10-07T21:00:00Z,26.6493,-81.8810,2.221,7.0,1111122 
SCCF RECON,ioos:station:SCCF:53:1,2010-10-07T22:00:00Z,26.6493,-81.8810,2.21,7.1,1111122 
SCCF RECON,ioos:station:SCCF:53:1,2010-10-07T23:00:00Z,26.6493,-81.8810,2.168,6.92,1111122 
SCCF RECON,ioos:station:SCCF:53:1,2010-10-08T00:00:00Z,26.6493,-81.8810,2.125,6.85,1111122 
SCCF RECON,ioos:station:SCCF:53:1,2010-10-08T01:00:00Z,26.6493,-81.8810,2.09,7.05,1111122 
SCCF RECON,ioos:station:SCCF:53:1,2010-10-08T02:00:00Z,26.6493,-81.8810,2.07,7.2,1111122 
SCCF RECON,ioos:station:SCCF:53:1,2010-10-08T03:00:00Z,26.6493,-81.8810,2.123,7.46,1111122 
SCCF RECON,ioos:station:SCCF:53:1,2010-10-08T04:00:00Z,26.6493,-81.8810,2.2,7.16,1111122 
SCCF RECON,ioos:station:SCCF:53:1,2010-10-08T05:00:00Z,26.6493,-81.8810,2.27,7.0,1111122 
SCCF RECON,ioos:station:SCCF:53:1,2010-10-08T06:00:00Z,26.6493,-81.8810,2.35,7.15,1111122 
SCCF RECON,ioos:station:SCCF:53:1,2010-10-08T07:00:00Z,26.6493,-81.8810,2.418,7.58,1111122 
SCCF RECON,ioos:station:SCCF:53:1,2010-10-08T08:00:00Z,26.6493,-81.8810,2.45,8.08,1111122 
SCCF RECON,ioos:station:SCCF:53:1,2010-10-08T09:00:00Z,26.6493,-81.8810,2.43,8.82,1111122 
SCCF RECON,ioos:station:SCCF:53:1,2010-10-08T10:00:00Z,26.6493,-81.8810,2.36,7.77,1111122 
SCCF RECON,ioos:station:SCCF:53:1,2010-10-08T11:00:00Z,26.6493,-81.8810,2.3,7.5,1111122 
SCCF RECON,ioos:station:SCCF:53:1,2010-10-08T12:00:00Z,26.6493,-81.8810,2.24,7.73,1111122 
SCCF RECON,ioos:station:SCCF:53:1,2010-10-08T13:00:00Z,26.6493,-81.8810,2.18,7.93,1111122 
SCCF RECON,ioos:station:SCCF:53:1,2010-10-08T14:00:00Z,26.6493,-81.8810,2.125,8.07,1111122 
SCCF RECON,ioos:station:SCCF:53:1,2010-10-08T15:00:00Z,26.6493,-81.8810,2.075,7.82,1111122 
SCCF RECON,ioos:station:SCCF:53:1,2010-10-08T16:00:00Z,26.6493,-81.8810,2.07,8.61,1111122 
SCCF RECON,ioos:station:SCCF:53:1,2010-10-08T17:00:00Z,26.6493,-81.8810,2.13,9.11,1111122 
SCCF RECON,ioos:station:SCCF:53:1,2010-10-08T18:00:00Z,26.6493,-81.8810,2.19,9.05,1111122 
SCCF RECON,ioos:station:SCCF:53:1,2010-10-08T19:00:00Z,26.6493,-81.8810,2.251,9.06,1111122 
SCCF RECON,ioos:station:SCCF:53:1,2010-10-08T20:00:00Z,26.6493,-81.8810,2.323,9.32,1111122 
SCCF RECON,ioos:station:SCCF:53:1,2010-10-08T21:00:00Z,26.6493,-81.8810,2.37,9.32,1111122 
SCCF RECON,ioos:station:SCCF:53:1,2010-10-08T22:00:00Z,26.6493,-81.8810,2.39,10.74,1111122 
SCCF RECON,ioos:station:SCCF:53:1,2010-10-08T23:00:00Z,26.6493,-81.8810,2.36,9.91,1111122 
SCCF RECON,ioos:station:SCCF:53:1,2010-10-09T00:00:00Z,26.6493,-81.8810,2.31,8.96,1111122 
SCCF RECON,ioos:station:SCCF:53:1,2010-10-09T01:00:00Z,26.6493,-81.8810,2.27,8.3,1111122 
SCCF RECON,ioos:station:SCCF:53:1,2010-10-09T02:00:00Z,26.6493,-81.8810,2.229,9.96,1111122 
SCCF RECON,ioos:station:SCCF:53:1,2010-10-09T03:00:00Z,26.6493,-81.8810,2.21,10.57,1111122 
SCCF RECON,ioos:station:SCCF:53:1,2010-10-09T04:00:00Z,26.6493,-81.8810,2.27,10.89,1111122 
SCCF RECON,ioos:station:SCCF:53:1,2010-10-09T05:00:00Z,26.6493,-81.8810,2.35,11.13,1111122 
SCCF RECON,ioos:station:SCCF:53:1,2010-10-09T06:00:00Z,26.6493,-81.8810,2.414,11.12,1111122 
SCCF RECON,ioos:station:SCCF:53:1,2010-10-09T07:00:00Z,26.6493,-81.8810,2.483,11.37,1111122 
SCCF RECON,ioos:station:SCCF:53:1,2010-10-09T08:00:00Z,26.6493,-81.8810,2.532,12.21,1111122 
SCCF RECON,ioos:station:SCCF:53:1,2010-10-09T09:00:00Z,26.6493,-81.8810,2.54,12.14,1111122 
SCCF RECON,ioos:station:SCCF:53:1,2010-10-09T10:00:00Z,26.6493,-81.8810,2.49,11.69,1111122 
SCCF RECON,ioos:station:SCCF:53:1,2010-10-09T11:00:00Z,26.6493,-81.8810,2.421,10.49,1111122 
SCCF RECON,ioos:station:SCCF:53:1,2010-10-09T12:00:00Z,26.6493,-81.8810,2.36,10.43,1111122 
SCCF RECON,ioos:station:SCCF:53:1,2010-10-09T13:00:00Z,26.6493,-81.8810,2.299,11.1,1111122 
SCCF RECON,ioos:station:SCCF:53:1,2010-10-09T14:00:00Z,26.6493,-81.8810,2.23,11.49,1111122 
SCCF RECON,ioos:station:SCCF:53:1,2010-10-09T15:00:00Z,26.6493,-81.8810,2.17,11.38,1111122 
SCCF RECON,ioos:station:SCCF:53:1,2010-10-09T16:00:00Z,26.6493,-81.8810,2.12,11.44,1111122 
SCCF RECON,ioos:station:SCCF:53:1,2010-10-09T17:00:00Z,26.6493,-81.8810,2.132,11.69,1111122 
SCCF RECON,ioos:station:SCCF:53:1,2010-10-09T18:00:00Z,26.6493,-81.8810,2.191,11.18,1111122 
SCCF RECON,ioos:station:SCCF:53:1,2010-10-09T19:00:00Z,26.6493,-81.8810,2.245,10.48,1111122 
SCCF RECON,ioos:station:SCCF:53:1,2010-10-09T20:00:00Z,26.6493,-81.8810,2.315,10.61,1111122 
SCCF RECON,ioos:station:SCCF:53:1,2010-10-09T21:00:00Z,26.6493,-81.8810,2.38,11.42,1111122 
SCCF RECON,ioos:station:SCCF:53:1,2010-10-09T22:00:00Z,26.6493,-81.8810,2.427,12.22,1111122 
SCCF RECON,ioos:station:SCCF:53:1,2010-10-09T23:00:00Z,26.6493,-81.8810,2.436,12.15,1111122 
SCCF RECON,ioos:station:SCCF:53:1,2010-10-10T00:00:00Z,26.6493,-81.8810,2.4,11.43,1111122 
SCCF RECON,ioos:station:SCCF:53:1,2010-10-10T01:00:00Z,26.6493,-81.8810,2.357,10.23,1111122 
SCCF RECON,ioos:station:SCCF:53:1,2010-10-10T02:00:00Z,26.6493,-81.8810,2.31,10.83,1111122 
SCCF RECON,ioos:station:SCCF:53:1,2010-10-10T03:00:00Z,26.6493,-81.8810,2.28,11.0,1111122 
SCCF RECON,ioos:station:SCCF:53:1,2010-10-10T04:00:00Z,26.6493,-81.8810,2.31,11.54,1111122 
SCCF RECON,ioos:station:SCCF:53:1,2010-10-10T05:00:00Z,26.6493,-81.8810,2.39,12.1,1111122 
SCCF RECON,ioos:station:SCCF:53:1,2010-10-10T06:00:00Z,26.6493,-81.8810,2.46,12.13,1111122 
SCCF RECON,ioos:station:SCCF:53:1,2010-10-10T07:00:00Z,26.6493,-81.8810,2.53,12.36,1111122 
SCCF RECON,ioos:station:SCCF:53:1,2010-10-10T08:00:00Z,26.6493,-81.8810,2.59,12.67,1111122 
SCCF RECON,ioos:station:SCCF:53:1,2010-10-10T09:00:00Z,26.6493,-81.8810,2.63,12.66,1111122 
SCCF RECON,ioos:station:SCCF:53:1,2010-10-10T10:00:00Z,26.6493,-81.8810,2.6,12.74,1111122 
SCCF RECON,ioos:station:SCCF:53:1,2010-10-10T11:00:00Z,26.6493,-81.8810,2.53,12.27,1111122 
SCCF RECON,ioos:station:SCCF:53:1,2010-10-10T12:00:00Z,26.6493,-81.8810,2.47,11.83,1111122 
SCCF RECON,ioos:station:SCCF:53:1,2010-10-10T13:00:00Z,26.6493,-81.8810,2.409,12.2,1111122 
SCCF RECON,ioos:station:SCCF:53:1,2010-10-10T14:00:00Z,26.6493,-81.8810,2.333,12.51,1111122 
SCCF RECON,ioos:station:SCCF:53:1,2010-10-10T15:00:00Z,26.6493,-81.8810,2.266,12.52,1111122 
SCCF RECON,ioos:station:SCCF:53:1,2010-10-10T16:00:00Z,26.6493,-81.8810,2.197,12.41,1111122 
SCCF RECON,ioos:station:SCCF:53:1,2010-10-10T17:00:00Z,26.6493,-81.8810,2.14,12.68,1111122 
SCCF RECON,ioos:station:SCCF:53:1,2010-10-10T18:00:00Z,26.6493,-81.8810,2.44,12.72,1111122 
SCCF RECON,ioos:station:SCCF:53:1,2010-10-10T19:00:00Z,26.6493,-81.8810,2.384,12.25,1111122 
SCCF RECON,ioos:station:SCCF:53:1,2010-10-10T20:00:00Z,26.6493,-81.8810,2.32,12.5,1111122 
SCCF RECON,ioos:station:SCCF:53:1,2010-10-10T21:00:00Z,26.6493,-81.8810,2.259,12.58,1111122 
SCCF RECON,ioos:station:SCCF:53:1,2010-10-10T22:00:00Z,26.6493,-81.8810,2.19,12.66,1111122 
SCCF RECON,ioos:station:SCCF:53:1,2010-10-10T23:00:00Z,26.6493,-81.8810,2.124,12.65,1111122 
SCCF RECON,ioos:station:SCCF:53:1,2010-10-11T00:00:00Z,26.6493,-81.8810,2.08,12.86,1111122 
SCCF RECON,ioos:station:SCCF:53:1,2010-10-11T01:00:00Z,26.6493,-81.8810,2.097,13.06,1111122 
SCCF RECON,ioos:station:SCCF:53:1,2010-10-11T02:00:00Z,26.6493,-81.8810,2.15,12.53,1111122 
SCCF RECON,ioos:station:SCCF:53:1,2010-10-11T03:00:00Z,26.6493,-81.8810,2.2,12.19,1111122 
SCCF RECON,ioos:station:SCCF:53:1,2010-10-11T04:00:00Z,26.6493,-81.8810,2.257,12.98,1111122 
SCCF RECON,ioos:station:SCCF:53:1,2010-10-11T05:00:00Z,26.6493,-81.8810,2.31,13.12,1111122 
SCCF RECON,ioos:station:SCCF:53:1,2010-10-11T06:00:00Z,26.6493,-81.8810,2.33,13.38,1111122 
SCCF RECON,ioos:station:SCCF:53:1,2010-10-11T07:00:00Z,26.6493,-81.8810,2.34,12.86,1111122 
SCCF RECON,ioos:station:SCCF:53:1,2010-10-11T08:00:00Z,26.6493,-81.8810,2.32,12.72,1111122 
SCCF RECON,ioos:station:SCCF:53:1,2010-10-11T09:00:00Z,26.6493,-81.8810,2.28,12.81,1111122 
SCCF RECON,ioos:station:SCCF:53:1,2010-10-11T10:00:00Z,26.6493,-81.8810,2.25,12.7,1111122 
SCCF RECON,ioos:station:SCCF:53:1,2010-10-11T11:00:00Z,26.6493,-81.8810,2.23,13.36,1111122 
SCCF RECON,ioos:station:SCCF:53:1,2010-10-11T12:00:00Z,26.6493,-81.8810,2.28,13.01,1111122 
SCCF RECON,ioos:station:SCCF:53:1,2010-10-11T13:00:00Z,26.6493,-81.8810,2.35,12.87,1111122 
SCCF RECON,ioos:station:SCCF:53:1,2010-10-11T14:00:00Z,26.6493,-81.8810,2.41,12.88,1111122 
SCCF RECON,ioos:station:SCCF:53:1,2010-10-11T15:00:00Z,26.6493,-81.8810,2.462,12.78,1111122 
SCCF RECON,ioos:station:SCCF:53:1,2010-10-11T16:00:00Z,26.6493,-81.8810,2.51,12.76,1111122 
SCCF RECON,ioos:station:SCCF:53:1,2010-10-11T17:00:00Z,26.6493,-81.8810,2.5,12.86,1111122 
SCCF RECON,ioos:station:SCCF:53:1,2010-10-11T18:00:00Z,26.6493,-81.8810,2.45,12.77,1111122 
SCCF RECON,ioos:station:SCCF:53:1,2010-10-11T19:00:00Z,26.6493,-81.8810,2.39,12.23,1111122 
SCCF RECON,ioos:station:SCCF:53:1,2010-10-11T20:00:00Z,26.6493,-81.8810,2.326,12.56,1111122 